Skip Page Navigation
NASA JPL Caltech
NASA Logo - Jet Propulsion Laboratory + View the NASA Portal
+ Center for Near-Earth Object Studies
JPL Home Earth Solar System Stars & Galaxies Technology
JPL Solar System Dynamics
BODIES ORBITS EPHEMERIDES TOOLS PHYSICAL DATA DISCOVERY FAQ SITE MAP
IMPORTANT: The SSD Announcement email list is now available. Major changes are coming in the near future, including possible hostname and/or URL changes. To be notified of such changes, subscribe to this email list.

Please visit this page for more details.


JPL Small-Body Database Browser
Search: [ help ]  
423676 (2005 YB192)
Classification: Main-belt Asteroid          SPK-ID: 2423676
Ephemeris | Orbit Diagram | Orbital Elements | Mission Design | Physical Parameters | Discovery Circumstances ]

[ show orbit diagram ]
Orbital Elements at Epoch 2459000.5 (2020-May-31.0) TDB
Reference: JPL 16 (heliocentric ecliptic J2000)
 Element Value Uncertainty (1-sigma)   Units 
e .08585347157485988 6.9705e-08  
a 2.761947314714269 3.8606e-08 au
q 2.524824549439187 1.8734e-07 au
i 5.349497052841768 9.3669e-06 deg
node 321.5525620554527 6.9445e-05 deg
peri 80.38214247446543 0.00010275 deg
M 120.8804637514948 6.9305e-05 deg
tp 2458437.543123301815
(2018-Nov-15.04312330)
0.00032175 TDB
period 1676.569309230835
4.59
3.5152e-05
9.624e-08
d
yr
n .2147241978115169 4.502e-09 deg/d
Q 2.999070079989351 4.192e-08 au
  Orbit Determination Parameters
   # obs. used (total)      111  
   data-arc span      5144 days (14.08 yr)  
   first obs. used      2005-12-30  
   last obs. used      2020-01-30  
   planetary ephem.      DE431  
   SB-pert. ephem.      SB431-N16  
   condition code      0  
   norm. resid. RMS      .57274  
   source      ORB  
   producer      Otto Matic  
   solution date      2020-Feb-26 08:06:33  

Additional Information
 Earth MOID = 1.53977 au 
 Jupiter MOID = 2.32838 au 
 T_jup = 3.329 
[ show covariance matrix ]

Ephemeris | Orbit Diagram | Orbital Elements | Mission Design | Physical Parameters | Discovery Circumstances ]

Physical Parameter Table
Parameter Symbol Value Units Sigma Reference Notes
absolute magnitude H 17.3   n/a MPO460619  

423676 (2005 YB192)          Discovered 2005-Dec-30 by Spacewatch at Kitt Peak
Reference: Last Updated: 2015-02-04

Alternate Designations
 2005 YB192 = 2009 WL175 
Ephemeris | Orbit Diagram | Orbital Elements | Mission Design | Physical Parameters | Discovery Circumstances ]
ABOUT SSD CREDITS/AWARDS PRIVACY/COPYRIGHT GLOSSARY LINKS
FirstGov 2020-Mar-29 01:31 UT
(server date/time)  
NASA Home Page
Site Manager:   Ryan S. Park
Webmaster  Alan B. Chamberlin